TimeCST,TemperatureF,Dew PointF,Humidity,Sea Level PressureIn,VisibilityMPH,Wind Direction,Wind SpeedMPH,Gust SpeedMPH,PrecipitationIn,Events,Conditions,WindDirDegrees,DateUTC
12:15 AM,45.3,43.2,92,30.27,10.0,North,5.8,-,N/A,,Clear,360,2012-12-05 06:15:00
12:35 AM,45.9,43.2,90,30.27,10.0,North,6.9,-,N/A,,Clear,360,2012-12-05 06:35:00
12:55 AM,45.9,43.2,90,30.28,10.0,North,5.8,-,N/A,,Clear,360,2012-12-05 06:55:00
1:15 AM,44.2,42.3,93,30.29,10.0,Calm,Calm,-,N/A,,Clear,0,2012-12-05 07:15:00
1:55 AM,42.1,41.7,99,30.29,10.0,Calm,Calm,-,N/A,,Clear,0,2012-12-05 07:55:00
2:15 AM,41.2,41.2,100,30.29,7.0,Calm,Calm,-,N/A,,Clear,0,2012-12-05 08:15:00
2:35 AM,41.0,41.0,100,30.29,7.0,Calm,Calm,-,N/A,,Clear,0,2012-12-05 08:35:00
2:55 AM,40.3,40.3,100,30.29,4.0,Calm,Calm,-,N/A,,Clear,0,2012-12-05 08:55:00
3:15 AM,39.7,39.7,100,30.30,5.0,Calm,Calm,-,N/A,,Clear,0,2012-12-05 09:15:00
3:35 AM,40.1,40.1,100,30.30,4.0,Calm,Calm,-,N/A,,Clear,0,2012-12-05 09:35:00
3:55 AM,38.8,38.8,100,30.30,0.5,Calm,Calm,-,N/A,Fog,Fog,0,2012-12-05 09:55:00
4:15 AM,37.6,37.6,100,30.30,0.2,Calm,Calm,-,N/A,Fog,Fog,0,2012-12-05 10:15:00
4:35 AM,37.8,37.8,100,30.31,0.8,Calm,Calm,-,N/A,,Overcast,0,2012-12-05 10:35:00
4:55 AM,38.5,38.5,100,30.32,0.2,Calm,Calm,-,N/A,Fog,Fog,0,2012-12-05 10:55:00
5:15 AM,38.1,38.1,100,30.33,0.2,Calm,Calm,-,N/A,Fog,Fog,0,2012-12-05 11:15:00
5:35 AM,36.7,36.7,100,30.33,0.8,Calm,Calm,-,N/A,,Overcast,0,2012-12-05 11:35:00
5:55 AM,36.1,36.1,100,30.34,0.2,Calm,Calm,-,N/A,Fog,Fog,0,2012-12-05 11:55:00
6:15 AM,35.6,35.6,100,30.34,0.5,Calm,Calm,-,N/A,Fog,Fog,0,2012-12-05 12:15:00
6:35 AM,35.4,35.4,100,30.34,0.5,Calm,Calm,-,N/A,Fog,Fog,0,2012-12-05 12:35:00
6:55 AM,34.2,34.2,100,30.35,0.2,Calm,Calm,-,N/A,Fog,Fog,0,2012-12-05 12:55:00
8:35 AM,41.9,41.9,100,30.35,4.0,Calm,Calm,-,N/A,,Clear,0,2012-12-05 14:35:00
8:55 AM,44.6,44.6,100,30.35,7.0,Calm,Calm,-,N/A,,Clear,0,2012-12-05 14:55:00
9:15 AM,46.8,46.2,98,30.36,10.0,Calm,Calm,-,N/A,,Clear,0,2012-12-05 15:15:00
9:35 AM,48.2,46.8,95,30.36,10.0,Calm,Calm,-,N/A,,Clear,0,2012-12-05 15:35:00
9:55 AM,49.5,46.9,91,30.36,10.0,ENE,3.5,-,N/A,,Clear,60,2012-12-05 15:55:00
10:15 AM,50.9,47.7,89,30.35,10.0,NNE,5.8,-,N/A,,Clear,30,2012-12-05 16:15:00
10:35 AM,52.0,47.5,85,30.34,10.0,NNE,4.6,-,N/A,,Clear,30,2012-12-05 16:35:00
10:55 AM,53.2,48.6,84,30.34,10.0,NE,3.5,-,N/A,,Clear,40,2012-12-05 16:55:00
11:15 AM,53.8,47.5,79,30.33,10.0,ENE,5.8,-,N/A,,Clear,60,2012-12-05 17:15:00
11:35 AM,55.4,46.4,72,30.32,10.0,NE,4.6,-,N/A,,Clear,50,2012-12-05 17:35:00
11:55 AM,56.3,46.8,70,30.31,10.0,NE,5.8,-,N/A,,Clear,50,2012-12-05 17:55:00
12:15 PM,57.2,46.9,69,30.31,10.0,NNE,4.6,-,N/A,,Clear,20,2012-12-05 18:15:00
12:35 PM,57.9,45.0,62,30.30,10.0,ENE,4.6,-,N/A,,Clear,60,2012-12-05 18:35:00
12:55 PM,58.6,43.7,58,30.29,10.0,NNE,8.1,-,N/A,,Clear,30,2012-12-05 18:55:00
1:15 PM,58.8,43.2,56,30.28,10.0,NE,8.1,-,N/A,,Clear,50,2012-12-05 19:15:00
1:35 PM,59.2,42.8,55,30.28,10.0,ENE,8.1,-,N/A,,Clear,60,2012-12-05 19:35:00
1:55 PM,59.7,41.5,51,30.27,10.0,NE,9.2,-,N/A,,Clear,50,2012-12-05 19:55:00
2:15 PM,59.7,40.1,48,30.27,10.0,ENE,9.2,-,N/A,,Clear,60,2012-12-05 20:15:00
2:35 PM,59.4,39.2,47,30.26,10.0,NE,8.1,-,N/A,,Clear,40,2012-12-05 20:35:00
2:55 PM,59.0,39.7,49,30.26,10.0,ENE,9.2,-,N/A,,Clear,70,2012-12-05 20:55:00
3:15 PM,58.1,40.8,53,30.26,10.0,ENE,9.2,-,N/A,,Clear,60,2012-12-05 21:15:00
3:35 PM,57.2,42.6,58,30.26,10.0,ENE,3.5,-,N/A,,Clear,60,2012-12-05 21:35:00
3:55 PM,56.1,40.8,57,30.26,10.0,NE,3.5,-,N/A,,Clear,40,2012-12-05 21:55:00
4:15 PM,54.5,40.6,60,30.25,10.0,NE,5.8,-,N/A,,Clear,50,2012-12-05 22:15:00
4:35 PM,52.2,40.5,64,30.25,10.0,NE,5.8,-,N/A,,Clear,40,2012-12-05 22:35:00
4:55 PM,51.8,39.0,62,30.25,10.0,NE,5.8,-,N/A,,Clear,40,2012-12-05 22:55:00
5:15 PM,51.1,38.5,62,30.24,10.0,NE,5.8,-,N/A,,Clear,50,2012-12-05 23:15:00
5:35 PM,48.7,38.3,67,30.24,10.0,NE,4.6,-,N/A,,Clear,40,2012-12-05 23:35:00
5:55 PM,48.6,38.5,68,30.24,10.0,NNE,4.6,-,N/A,,Clear,30,2012-12-05 23:55:00
6:15 PM,47.3,38.3,71,30.24,10.0,NE,5.8,-,N/A,,Clear,40,2012-12-06 00:15:00
6:35 PM,46.8,38.7,73,30.23,10.0,NNE,8.1,-,N/A,,Clear,30,2012-12-06 00:35:00
7:35 PM,44.4,38.3,79,30.24,10.0,Calm,Calm,-,N/A,,Clear,0,2012-12-06 01:35:00
7:55 PM,43.3,37.8,81,30.24,10.0,Calm,Calm,-,N/A,,Clear,0,2012-12-06 01:55:00
8:15 PM,43.2,37.6,81,30.23,10.0,Calm,Calm,-,N/A,,Clear,0,2012-12-06 02:15:00
8:35 PM,43.3,37.6,80,30.22,10.0,Calm,Calm,-,N/A,,Clear,0,2012-12-06 02:35:00
8:55 PM,41.5,36.9,83,30.22,10.0,Calm,Calm,-,N/A,,Clear,0,2012-12-06 02:55:00
9:15 PM,39.4,36.7,90,30.22,10.0,NNE,4.6,-,N/A,,Clear,30,2012-12-06 03:15:00
9:35 PM,41.0,37.2,86,30.21,10.0,Calm,Calm,-,N/A,,Clear,0,2012-12-06 03:35:00
9:55 PM,41.5,36.9,83,30.21,10.0,ENE,3.5,-,N/A,,Clear,60,2012-12-06 03:55:00
10:15 PM,41.9,36.3,81,30.21,10.0,ENE,4.6,-,N/A,,Clear,70,2012-12-06 04:15:00
10:35 PM,41.9,36.1,80,30.20,10.0,ENE,5.8,-,N/A,,Clear,70,2012-12-06 04:35:00
10:55 PM,38.3,35.8,91,30.20,10.0,Calm,Calm,-,N/A,,Clear,0,2012-12-06 04:55:00
11:15 PM,38.8,35.8,89,30.19,10.0,Calm,Calm,-,N/A,,Clear,0,2012-12-06 05:15:00
11:35 PM,40.1,36.1,86,30.19,10.0,East,4.6,-,N/A,,Clear,80,2012-12-06 05:35:00
11:55 PM,38.5,35.1,87,30.18,10.0,ENE,3.5,-,N/A,,Clear,60,2012-12-06 05:55:00